Weather History for Baltimore Martin, MD

Change the Weather History Date:

Saturday, November 2, 2013

  Actual Average Record
Temperature  
Mean Temperature 60 °F -  
Max Temperature 69 °F 57 °F 77 °F (2001)
Min Temperature 50 °F 41 °F 32 °F (2010)
Degree Days  
Heating Degree Days 6    
Growing Degree Days 10 (Base 50)    
Moisture  
Dew Point 49 °F    
Average Humidity 80    
Maximum Humidity 100    
Minimum Humidity 40    
Precipitation  
Precipitation 0.00 in - - ()
Sea Level Pressure  
Sea Level Pressure 29.73 in    
Wind  
Wind Speed 3 mph (West)    
Max Wind Speed 17 mph    
Max Gust Speed 25 mph    
Visibility 9 miles    
Events Fog    
Averages and records for this station are not official NWS values.
T = Trace of Precipitation, MM = Missing Value Source: NWS Daily Summary

Daily Weather History Graph

Daily Weather History Graph

Search for Another Location

Airport:

Trip Planner

Search our weather history database for the weather conditions in past years. The results will help you decide how hot, cold, wet, or windy it might be!

Date:

Astronomy

Nov. 02, 2013 Rise Set
Actual Time 7:34 AM EDT 6:02 PM EDT
Civil Twilight 7:06 AM EDT 6:30 PM EDT
Nautical Twilight 6:35 AM EDT 7:02 PM EDT
Astronomical Twilight 6:03 AM EDT 7:33 PM EDT
Moon 6:30 AM EDT (11/2) 5:32 PM EDT (11/2)
Length of Visible Light 11h 23m
Length of Day
10h 28m
Waning Crescent, 1% of the Moon is Illuminated
Nov 2
Waning Crescent
Nov 3
New
Nov 10
First Quarter
Nov 17
Full
Nov 25
Last Quarter

Hourly Weather History & Observations

Time (EDT) Temp. Dew Point Humidity Pressure Visibility Wind Dir Wind Speed Gust Speed Precip Events Conditions
12:15 AM 55.4 °F 55.4 °F 100% 29.66 in 0.8 mi Calm Calm - N/A   Mist
12:36 AM 53.6 °F 53.6 °F 100% 29.67 in 0.2 mi Calm Calm - N/A Fog Fog
12:57 AM 53.6 °F 53.6 °F 100% 29.66 in 1.8 mi WNW 3.5 mph - N/A   Scattered Clouds
1:15 AM 53.6 °F 53.6 °F 100% 29.67 in 7.0 mi Calm Calm - N/A   Scattered Clouds
1:36 AM 55.4 °F 55.4 °F 100% 29.66 in 7.0 mi NW 5.8 mph - N/A   Scattered Clouds
1:57 AM 53.6 °F 53.6 °F 100% 29.67 in 7.0 mi Calm Calm - N/A   Scattered Clouds
2:15 AM 53.6 °F 53.6 °F 100% 29.67 in 5.0 mi Calm Calm - N/A   Scattered Clouds
2:36 AM 53.6 °F 53.6 °F 100% 29.66 in 2.0 mi WNW 3.5 mph - N/A   Mostly Cloudy
2:57 AM 53.6 °F 53.6 °F 100% 29.66 in 2.5 mi Calm Calm - N/A   Mostly Cloudy
3:15 AM 53.6 °F 53.6 °F 100% 29.67 in 10.0 mi West 3.5 mph - N/A   Mostly Cloudy
3:36 AM 53.6 °F 53.6 °F 100% 29.67 in 10.0 mi West 3.5 mph - N/A   Mostly Cloudy
3:57 AM 53.6 °F 53.6 °F 100% 29.68 in 10.0 mi West 3.5 mph - N/A   Mostly Cloudy
4:15 AM 53.6 °F 53.6 °F 100% 29.68 in 10.0 mi Calm Calm - N/A   Mostly Cloudy
4:36 AM 53.6 °F 53.6 °F 100% 29.67 in 10.0 mi Calm Calm - N/A   Scattered Clouds
4:57 AM 51.8 °F 51.8 °F 100% 29.68 in 10.0 mi Calm Calm - N/A   Mostly Cloudy
5:15 AM 53.6 °F 53.6 °F 100% 29.68 in 10.0 mi Calm Calm - N/A   Mostly Cloudy
5:30 AM 53.6 °F 53.6 °F 100% 29.69 in 10.0 mi Calm Calm - N/A   Mostly Cloudy
5:55 AM 51.8 °F 51.8 °F 100% 29.69 in 10.0 mi Calm Calm - N/A   Scattered Clouds
6:45 AM 51.8 °F 51.8 °F 100% 29.70 in 10.0 mi NW 3.5 mph - N/A   Scattered Clouds
7:45 AM 50.0 °F 50.0 °F 100% 29.71 in 10.0 mi Calm Calm - N/A   Scattered Clouds
8:45 AM 51.8 °F 51.8 °F 100% 29.72 in 10.0 mi Calm Calm - N/A   Scattered Clouds
9:45 AM 59.0 °F 53.6 °F 82% 29.73 in 10.0 mi Calm Calm - N/A   Scattered Clouds
10:45 AM 64.4 °F 51.8 °F 64% 29.71 in 10.0 mi Calm Calm - N/A   Scattered Clouds
11:45 AM 68.0 °F 48.2 °F 49% 29.70 in 10.0 mi SW 8.1 mph - N/A   Scattered Clouds
12:45 PM 69.8 °F 46.4 °F 43% 29.70 in 10.0 mi West 10.4 mph 15.0 mph N/A   Scattered Clouds
1:45 PM 69.8 °F 44.6 °F 40% 29.69 in 10.0 mi WSW 9.2 mph 19.6 mph N/A   Mostly Cloudy
2:49 PM 66.2 °F 44.6 °F 46% 29.69 in 10.0 mi WNW 13.8 mph - N/A   Mostly Cloudy
3:47 PM 64.4 °F 42.8 °F 45% 29.69 in 10.0 mi West 13.8 mph 23.0 mph N/A   Mostly Cloudy
4:46 PM 62.6 °F 44.6 °F 52% 29.71 in 10.0 mi WNW 17.3 mph 25.3 mph N/A   Scattered Clouds
5:49 PM 60.8 °F 42.8 °F 52% 29.74 in 10.0 mi WNW 12.7 mph 23.0 mph N/A   Scattered Clouds
6:53 PM 60.8 °F 42.8 °F 52% 29.78 in 10.0 mi West 9.2 mph - N/A   Mostly Cloudy
7:51 PM 59.0 °F 39.2 °F 48% 29.82 in 10.0 mi West 10.4 mph - N/A   Mostly Cloudy
8:45 PM 57.2 °F 39.2 °F 51% 29.84 in 10.0 mi West 9.2 mph - N/A   Mostly Cloudy
9:45 PM 51.8 °F 41.0 °F 67% 29.85 in 10.0 mi West 5.8 mph - N/A   Mostly Cloudy
10:18 PM 50.0 °F 41.0 °F 71% 29.86 in 10.0 mi West 5.8 mph - N/A   Clear
10:39 PM 51.8 °F 41.0 °F 67% 29.87 in 10.0 mi WSW 6.9 mph - N/A   Clear
10:57 PM 53.6 °F 41.0 °F 62% 29.87 in 10.0 mi WSW 8.1 mph - N/A   Clear
11:18 PM 51.8 °F 41.0 °F 67% 29.87 in 10.0 mi WSW 5.8 mph - N/A   Clear
11:39 PM 51.8 °F 41.0 °F 67% 29.88 in 10.0 mi WSW 5.8 mph - N/A   Clear
11:57 PM 50.0 °F 41.0 °F 71% 29.88 in 10.0 mi West 5.8 mph - N/A   Clear